Flag for Switzerland Weather past 2 weeks in Mendrisio, Ticino, Switzerland

Now
61 °F

Cool.


Feels Like: 61 °F
Forecast: 54 / 65 °F
Wind: No wind

Location: Stabio

Current Time: Sep 20, 2014 at 12:40:14 AM

Latest Report: Sep 20, 2014 at 12:00 AM


Visibility: N/A

Pressure: 30.13 "Hg

Humidity: 99%

Dew point: 60 °F

Location of MendrisioLocation

Historic Weather in Mendrisio — Graph

°F

Mendrisio temperature yesterday

Maximum temperature yesterday: 64 °F (at 5:00 PM)
Minimum temperature yesterday: 58 °F (at 3:00 AM)
Average temperature yesterday: 61 °F

Past Weeks' High & Low Weather Summary

 TemperatureHumidityPressure
High80 °F (Sep 8, 3:00 PM)100% (Sep 10, 3:00 AM)30.14 "Hg (Sep 10, 3:00 AM)
Low50 °F (Sep 13, 7:00 AM)31% (Sep 12, 2:00 PM)29.76 "Hg (Sep 11, 6:00 PM)
Average64 °F85%29.97 "Hg
* Reported Sep 4 10:00 PM — Sep 19 10:00 PM, Mendrisio, Weather by CustomWeather, © 2014

Note: Actual official high and low records may vary slightly from our data, if they occured in-between our weather recording intervals... More about our weather records

Advertising

Mendrisio weather history for previous 24 hours

 ConditionsComfort  
Time TempWeatherWind HumidityBarometerVisibility
10:00 PM
Sep 19
61 °FCool.1 mph99%30.14 "HgN/A
9:00 PM61 °FCool.No wind99%30.13 "HgN/A
8:00 PM61 °FCool.2 mph98%30.11 "HgN/A
7:00 PM61 °FCool.No wind98%30.09 "HgN/A
6:00 PM63 °FMild.1 mph93%30.08 "HgN/A
5:00 PM64 °FMild.2 mph85%30.09 "HgN/A
4:00 PM62 °FMild.1 mph95%30.11 "HgN/A
3:00 PM60 °FCool.8 mph97%30.14 "HgN/A
2:00 PM60 °FCool.1 mph99%30.11 "HgN/A
1:00 PM62 °FCool.1 mph93%30.11 "HgN/A
12:00 PM62 °FCool.1 mph91%30.12 "HgN/A
11:00 AM62 °FCool.1 mph91%30.12 "HgN/A
10:00 AM61 °FCool.1 mph94%30.11 "HgN/A
9:00 AM60 °FCool.No wind98%30.11 "HgN/A
8:00 AM59 °FCool.1 mph97%30.12 "HgN/A
7:00 AM59 °FCool.1 mph98%30.11 "HgN/A
6:00 AM59 °FCool.1 mph98%30.11 "HgN/A
5:00 AM59 °FCool.2 mph96%30.10 "HgN/A
4:00 AM58 °FCool.1 mph99%30.11 "HgN/A
3:00 AM58 °FCool.2 mph97%30.11 "HgN/A
2:00 AM59 °FCool.No wind98%30.13 "HgN/A
1:00 AM59 °FCool.2 mph96%30.13 "HgN/A
12:00 AM59 °FCool.1 mph95%30.11 "HgN/A
Weather by CustomWeather, © 2014

See weather overviewHow to use our weather pages